Starlink 4032

operational
NORAD ID: 52688 Int'l Des: 2022-053 Owner: SPXS Country: US Constellation: starlink
LEOCIRCULAR

关于 Starlink 4032

正在加载描述...

实时位置

正在加载3D地球...

即将过境

高度历史

Altitude vs Time

uPlot chart will show altitude changes over time

两行轨道根数

1 52688U 22053AJ 25260.23882350 -.00000038 00000-0 15696-4 0 9990
2 52688 53.2152 202.6549 0001470 89.5666 270.5494 15.08846115184934
Epoch: Sep 17, 2025 • Age: 22 hours

当前状态

高度 553.7 km
速度 7.58 km/s
星下点 -39.98°S, 106.34°E
发射日期 May 18, 2022
运行时间 3.3 years
类型 internet

技术详情

分类 Payload
质量 297.00 kg
干质量 275.00 kg
总质量 297.00 kg
长度 0.20 m
直径 2.80 m
跨度 9.00 m
形状 Box + pan
制造商 SPXS
平台类型 Starlink
阶段状态 In Orbit
所有者/国家 SPXS/US

大型星座

Loading constellations...